Time,TemperatureF,DewpointF,PressureIn,WindDirection,WindDirectionDegrees,WindSpeedMPH,WindSpeedGustMPH,Humidity,HourlyPrecipIn,Conditions,Clouds,dailyrainin,SoftwareType,DateUTC
2013-11-17 00:08:00,58.0,56.0,29.45,SE,126,2.0,-999.0,94,-99.99,,,0.00,weatherlink.com 1.10,2013-11-17 06:08:00,
2013-11-17 00:23:00,58.1,56.0,29.45,SSE,151,0.0,-999.0,94,-99.99,,,0.00,weatherlink.com 1.10,2013-11-17 06:23:00,
2013-11-17 00:38:00,57.7,56.0,29.46,South,181,0.0,-999.0,93,-99.99,,,0.01,weatherlink.com 1.10,2013-11-17 06:38:00,
2013-11-17 00:53:00,57.0,55.0,29.44,SSE,159,2.0,-999.0,93,-99.99,,,0.04,weatherlink.com 1.10,2013-11-17 06:53:00,
2013-11-17 01:08:00,56.3,54.0,29.45,SSW,194,3.0,-999.0,93,-99.99,,,0.16,weatherlink.com 1.10,2013-11-17 07:08:00,
2013-11-17 01:23:00,55.6,54.0,29.43,SE,138,0.0,-999.0,94,-99.99,,,0.27,weatherlink.com 1.10,2013-11-17 07:23:00,
2013-11-17 01:38:00,55.5,54.0,29.44,WNW,284,2.0,-999.0,95,-99.99,,,0.29,weatherlink.com 1.10,2013-11-17 07:38:00,
2013-11-17 01:53:00,55.7,55.0,29.44,WSW,244,0.0,-999.0,96,-99.99,,,0.53,weatherlink.com 1.10,2013-11-17 07:53:00,
2013-11-17 02:08:00,55.8,55.0,29.43,WSW,240,0.0,-999.0,96,-99.99,,,0.60,weatherlink.com 1.10,2013-11-17 08:08:00,
2013-11-17 02:24:00,55.7,55.0,29.42,WSW,239,0.0,-999.0,96,-99.99,,,0.65,weatherlink.com 1.10,2013-11-17 08:24:00,
2013-11-17 02:39:00,55.7,55.0,29.42,WSW,239,0.0,-999.0,96,-99.99,,,0.65,weatherlink.com 1.10,2013-11-17 08:39:00,
2013-11-17 02:54:00,55.4,54.0,29.41,WSW,239,0.0,-999.0,96,-99.99,,,0.65,weatherlink.com 1.10,2013-11-17 08:54:00,
2013-11-17 03:09:00,55.1,54.0,29.39,WSW,239,0.0,-999.0,96,-99.99,,,0.65,weatherlink.com 1.10,2013-11-17 09:09:00,
2013-11-17 03:24:00,55.0,54.0,29.39,WSW,239,0.0,-999.0,96,-99.99,,,0.65,weatherlink.com 1.10,2013-11-17 09:24:00,
2013-11-17 03:39:00,55.0,54.0,29.38,WSW,239,0.0,-999.0,97,-99.99,,,0.65,weatherlink.com 1.10,2013-11-17 09:39:00,
2013-11-17 03:54:00,54.9,54.0,29.37,WSW,239,0.0,-999.0,97,-99.99,,,0.65,weatherlink.com 1.10,2013-11-17 09:54:00,
2013-11-17 04:09:00,54.8,54.0,29.37,West,265,0.0,-999.0,97,-99.99,,,0.65,weatherlink.com 1.10,2013-11-17 10:09:00,
2013-11-17 04:24:00,54.8,54.0,29.37,West,275,0.0,-999.0,97,-99.99,,,0.65,weatherlink.com 1.10,2013-11-17 10:24:00,
2013-11-17 04:39:00,54.8,54.0,29.36,NNW,339,0.0,-999.0,97,-99.99,,,0.66,weatherlink.com 1.10,2013-11-17 10:39:00,
2013-11-17 04:54:00,54.9,54.0,29.35,North,5,0.0,-999.0,97,-99.99,,,0.66,weatherlink.com 1.10,2013-11-17 10:54:00,
2013-11-17 05:10:00,54.6,54.0,29.34,NNE,32,0.0,-999.0,97,-99.99,,,0.66,weatherlink.com 1.10,2013-11-17 11:10:00,
2013-11-17 05:25:00,54.5,54.0,29.33,NE,38,0.0,-999.0,97,-99.99,,,0.67,weatherlink.com 1.10,2013-11-17 11:25:00,
2013-11-17 05:40:00,53.2,52.0,29.31,ENE,58,1.0,-999.0,97,-99.99,,,0.68,weatherlink.com 1.10,2013-11-17 11:40:00,
2013-11-17 05:55:00,53.0,52.0,29.31,ENE,57,0.0,-999.0,96,-99.99,,,0.68,weatherlink.com 1.10,2013-11-17 11:55:00,
2013-11-17 06:10:00,52.8,52.0,29.30,ENE,57,2.0,-999.0,96,-99.99,,,0.68,weatherlink.com 1.10,2013-11-17 12:10:00,
2013-11-17 06:25:00,52.8,52.0,29.30,ENE,57,0.0,-999.0,96,-99.99,,,0.68,weatherlink.com 1.10,2013-11-17 12:25:00,
2013-11-17 06:40:00,52.5,51.0,29.30,ENE,57,2.0,-999.0,96,-99.99,,,0.69,weatherlink.com 1.10,2013-11-17 12:40:00,
2013-11-17 06:55:00,52.5,51.0,29.29,ENE,57,0.0,-999.0,96,-99.99,,,0.69,weatherlink.com 1.10,2013-11-17 12:55:00,
2013-11-17 07:10:00,52.3,51.0,29.30,ENE,57,0.0,-999.0,96,-99.99,,,0.69,weatherlink.com 1.10,2013-11-17 13:10:00,
2013-11-17 07:25:00,52.4,51.0,29.30,ENE,57,0.0,-999.0,96,-99.99,,,0.69,weatherlink.com 1.10,2013-11-17 13:25:00,
2013-11-17 07:41:00,51.9,50.0,29.35,NW,313,10.0,-999.0,93,-99.99,,,0.69,weatherlink.com 1.10,2013-11-17 13:41:00,
2013-11-17 07:56:00,51.0,48.0,29.36,NNW,336,3.0,-999.0,90,-99.99,,,0.69,weatherlink.com 1.10,2013-11-17 13:56:00,
2013-11-17 08:11:00,49.5,46.0,29.36,NNW,346,9.0,-999.0,89,-99.99,,,0.69,weatherlink.com 1.10,2013-11-17 14:11:00,
2013-11-17 08:26:00,49.1,46.0,29.37,NNE,23,4.0,-999.0,88,-99.99,,,0.69,weatherlink.com 1.10,2013-11-17 14:26:00,
2013-11-17 08:41:00,48.8,45.0,29.36,North,349,4.0,-999.0,86,-99.99,,,0.69,weatherlink.com 1.10,2013-11-17 14:41:00,
2013-11-17 08:56:00,48.7,45.0,29.38,NNW,327,3.0,-999.0,88,-99.99,,,0.69,weatherlink.com 1.10,2013-11-17 14:56:00,
2013-11-17 09:11:00,48.7,45.0,29.39,NW,315,4.0,-999.0,88,-99.99,,,0.69,weatherlink.com 1.10,2013-11-17 15:11:00,
2013-11-17 09:28:00,48.7,46.0,29.41,NW,325,1.0,-999.0,89,-99.99,,,0.69,weatherlink.com 1.10,2013-11-17 15:28:00,
2013-11-17 09:42:00,48.8,44.0,29.42,WNW,294,8.0,-999.0,83,-99.99,,,0.69,weatherlink.com 1.10,2013-11-17 15:42:00,
2013-11-17 09:57:00,48.2,43.0,29.43,NW,317,12.0,-999.0,83,-99.99,,,0.69,weatherlink.com 1.10,2013-11-17 15:57:00,
2013-11-17 10:12:00,47.5,43.0,29.45,WNW,287,8.0,-999.0,85,-99.99,,,0.69,weatherlink.com 1.10,2013-11-17 16:12:00,
2013-11-17 10:27:00,47.3,44.0,29.48,NW,307,13.0,-999.0,87,-99.99,,,0.69,weatherlink.com 1.10,2013-11-17 16:27:00,
2013-11-17 10:42:00,46.9,43.0,29.49,SW,217,5.0,-999.0,87,-99.99,,,0.69,weatherlink.com 1.10,2013-11-17 16:42:00,
2013-11-17 10:57:00,45.6,44.0,29.51,WSW,256,8.0,-999.0,92,-99.99,,,0.71,weatherlink.com 1.10,2013-11-17 16:57:00,
2013-11-17 11:12:00,45.1,44.0,29.49,NW,315,10.0,-999.0,94,-99.99,,,0.73,weatherlink.com 1.10,2013-11-17 17:12:00,
2013-11-17 11:27:00,45.8,44.0,29.51,NW,306,7.0,-999.0,94,-99.99,,,0.73,weatherlink.com 1.10,2013-11-17 17:27:00,
2013-11-17 11:42:00,46.0,44.0,29.51,NNW,334,2.0,-999.0,94,-99.99,,,0.74,weatherlink.com 1.10,2013-11-17 17:42:00,
2013-11-17 11:57:00,46.1,44.0,29.51,NW,315,7.0,-999.0,93,-99.99,,,0.75,weatherlink.com 1.10,2013-11-17 17:57:00,
2013-11-17 12:13:00,46.6,44.0,29.51,West,274,4.0,-999.0,92,-99.99,,,0.75,weatherlink.com 1.10,2013-11-17 18:13:00,
2013-11-17 12:28:00,46.9,45.0,29.52,West,263,3.0,-999.0,92,-99.99,,,0.75,weatherlink.com 1.10,2013-11-17 18:28:00,
2013-11-17 12:43:00,48.3,46.0,29.52,WSW,251,5.0,-999.0,90,-99.99,,,0.75,weatherlink.com 1.10,2013-11-17 18:43:00,
2013-11-17 12:58:00,49.6,46.0,29.53,West,276,1.0,-999.0,88,-99.99,,,0.75,weatherlink.com 1.10,2013-11-17 18:58:00,
2013-11-17 13:13:00,50.0,46.0,29.54,West,275,7.0,-999.0,85,-99.99,,,0.75,weatherlink.com 1.10,2013-11-17 19:13:00,
2013-11-17 13:28:00,50.8,46.0,29.54,West,261,6.0,-999.0,83,-99.99,,,0.75,weatherlink.com 1.10,2013-11-17 19:28:00,
2013-11-17 13:43:00,51.9,46.0,29.55,WSW,245,11.0,-999.0,79,-99.99,,,0.75,weatherlink.com 1.10,2013-11-17 19:43:00,
2013-11-17 13:58:00,52.2,46.0,29.56,WNW,286,4.0,-999.0,78,-99.99,,,0.75,weatherlink.com 1.10,2013-11-17 19:58:00,
2013-11-17 14:13:00,52.0,45.0,29.58,NW,319,2.0,-999.0,77,-99.99,,,0.75,weatherlink.com 1.10,2013-11-17 20:13:00,
2013-11-17 14:28:00,51.7,45.0,29.60,NW,323,13.0,-999.0,77,-99.99,,,0.75,weatherlink.com 1.10,2013-11-17 20:28:00,
2013-11-17 14:44:00,51.8,44.0,29.61,West,260,15.0,-999.0,75,-99.99,,,0.75,weatherlink.com 1.10,2013-11-17 20:44:00,
2013-11-17 14:59:00,52.4,45.0,29.63,WNW,283,7.0,-999.0,75,-99.99,,,0.75,weatherlink.com 1.10,2013-11-17 20:59:00,
2013-11-17 15:14:00,52.1,45.0,29.64,WNW,294,6.0,-999.0,76,-99.99,,,0.75,weatherlink.com 1.10,2013-11-17 21:14:00,
2013-11-17 15:29:00,51.2,43.0,29.66,NNW,341,7.0,-999.0,74,-99.99,,,0.75,weatherlink.com 1.10,2013-11-17 21:29:00,
2013-11-17 15:44:00,50.9,43.0,29.68,WNW,303,5.0,-999.0,73,-99.99,,,0.75,weatherlink.com 1.10,2013-11-17 21:44:00,
2013-11-17 15:59:00,50.9,42.0,29.69,West,264,1.0,-999.0,72,-99.99,,,0.75,weatherlink.com 1.10,2013-11-17 21:59:00,
2013-11-17 16:14:00,50.5,41.0,29.71,NW,313,7.0,-999.0,71,-99.99,,,0.75,weatherlink.com 1.10,2013-11-17 22:14:00,
2013-11-17 16:29:00,49.7,42.0,29.72,NW,310,2.0,-999.0,74,-99.99,,,0.75,weatherlink.com 1.10,2013-11-17 22:29:00,
2013-11-17 16:44:00,49.0,42.0,29.74,West,273,5.0,-999.0,76,-99.99,,,0.75,weatherlink.com 1.10,2013-11-17 22:44:00,
2013-11-17 17:00:00,48.6,41.0,29.75,West,275,2.0,-999.0,76,-99.99,,,0.75,weatherlink.com 1.10,2013-11-17 23:00:00,
2013-11-17 17:15:00,48.2,41.0,29.77,WNW,286,3.0,-999.0,76,-99.99,,,0.75,weatherlink.com 1.10,2013-11-17 23:15:00,
2013-11-17 17:30:00,47.7,41.0,29.78,WNW,296,0.0,-999.0,77,-99.99,,,0.75,weatherlink.com 1.10,2013-11-17 23:30:00,
2013-11-17 17:45:00,47.6,41.0,29.79,WNW,299,0.0,-999.0,78,-99.99,,,0.75,weatherlink.com 1.10,2013-11-17 23:45:00,
2013-11-17 18:00:00,47.3,41.0,29.80,WNW,294,0.0,-999.0,78,-99.99,,,0.75,weatherlink.com 1.10,2013-11-18 00:00:00,
2013-11-17 18:15:00,47.1,41.0,29.82,West,279,1.0,-999.0,79,-99.99,,,0.75,weatherlink.com 1.10,2013-11-18 00:15:00,
2013-11-17 18:30:00,47.3,41.0,29.84,West,281,6.0,-999.0,79,-99.99,,,0.75,weatherlink.com 1.10,2013-11-18 00:30:00,
2013-11-17 18:45:00,47.4,41.0,29.85,WNW,284,2.0,-999.0,78,-99.99,,,0.75,weatherlink.com 1.10,2013-11-18 00:45:00,
2013-11-17 19:00:00,47.0,41.0,29.86,West,272,2.0,-999.0,80,-99.99,,,0.75,weatherlink.com 1.10,2013-11-18 01:00:00,
2013-11-17 19:16:00,46.2,41.0,29.86,WSW,257,0.0,-999.0,82,-99.99,,,0.75,weatherlink.com 1.10,2013-11-18 01:16:00,
2013-11-17 19:31:00,45.6,40.0,29.86,WNW,284,2.0,-999.0,82,-99.99,,,0.75,weatherlink.com 1.10,2013-11-18 01:31:00,
2013-11-17 19:46:00,45.5,41.0,29.89,West,261,1.0,-999.0,83,-99.99,,,0.75,weatherlink.com 1.10,2013-11-18 01:46:00,
2013-11-17 20:01:00,44.7,41.0,29.89,WNW,287,5.0,-999.0,85,-99.99,,,0.75,weatherlink.com 1.10,2013-11-18 02:01:00,
2013-11-17 20:16:00,45.0,41.0,29.89,WNW,286,1.0,-999.0,84,-99.99,,,0.75,weatherlink.com 1.10,2013-11-18 02:16:00,
2013-11-17 20:31:00,45.3,40.0,29.90,West,267,5.0,-999.0,82,-99.99,,,0.75,weatherlink.com 1.10,2013-11-18 02:31:00,
2013-11-17 20:46:00,45.4,40.0,29.91,WNW,301,3.0,-999.0,80,-99.99,,,0.75,weatherlink.com 1.10,2013-11-18 02:46:00,
2013-11-17 21:01:00,45.3,39.0,29.92,WNW,292,1.0,-999.0,79,-99.99,,,0.75,weatherlink.com 1.10,2013-11-18 03:01:00,
2013-11-17 21:16:00,45.5,39.0,29.93,West,269,5.0,-999.0,79,-99.99,,,0.75,weatherlink.com 1.10,2013-11-18 03:16:00,
2013-11-17 21:31:00,45.7,39.0,29.94,WNW,301,4.0,-999.0,78,-99.99,,,0.75,weatherlink.com 1.10,2013-11-18 03:31:00,
2013-11-17 21:47:00,45.8,40.0,29.95,NW,314,3.0,-999.0,79,-99.99,,,0.75,weatherlink.com 1.10,2013-11-18 03:47:00,
2013-11-17 22:02:00,46.1,39.0,29.95,NW,316,2.0,-999.0,77,-99.99,,,0.75,weatherlink.com 1.10,2013-11-18 04:02:00,
2013-11-17 22:17:00,45.5,39.0,29.96,WNW,299,5.0,-999.0,78,-99.99,,,0.75,weatherlink.com 1.10,2013-11-18 04:17:00,
2013-11-17 22:32:00,45.1,39.0,29.97,NW,319,8.0,-999.0,78,-99.99,,,0.75,weatherlink.com 1.10,2013-11-18 04:32:00,
2013-11-17 22:47:00,44.5,38.0,29.98,NNW,329,5.0,-999.0,79,-99.99,,,0.75,weatherlink.com 1.10,2013-11-18 04:47:00,
2013-11-17 23:02:00,44.4,38.0,29.98,WNW,288,2.0,-999.0,79,-99.99,,,0.75,weatherlink.com 1.10,2013-11-18 05:02:00,
2013-11-17 23:17:00,44.4,38.0,29.99,NW,304,1.0,-999.0,79,-99.99,,,0.75,weatherlink.com 1.10,2013-11-18 05:17:00,
2013-11-17 23:32:00,44.5,38.0,30.00,NW,306,4.0,-999.0,78,-99.99,,,0.75,weatherlink.com 1.10,2013-11-18 05:32:00,
2013-11-17 23:47:00,44.4,38.0,30.00,WNW,297,4.0,-999.0,77,-99.99,,,0.75,weatherlink.com 1.10,2013-11-18 05:47:00,